"Pseudo-MPEC" for C46DUV1

Created 2026 Jun 7 5:35:03 UT using Find_Orb

Click here for an explanation of pseudo-MPECs

 
 Astrometry: 
     C46DUV1*1C2026 06 05.40629423 02 55.370+19 19 54.12   ~65AZx      VNEOCP703
     C46DUV1 1C2026 06 05.40861823 02 40.715+19 18 49.39   ~65AZ 17.48GVNEOCP703
     C46DUV1 1C2026 06 05.41095023 02 26.322+19 17 43.01   ~65AZ 17.26GVNEOCP703
     C46DUV1 1C2026 06 05.43571422 59 53.844+19 05 50.60   ~65Ao 17.61GVNEOCPI52
     C46DUV1 1C2026 06 05.43616222 59 51.094+19 05 37.57   ~65Ao 17.61GVNEOCPI52
     C46DUV1 1C2026 06 05.43661422 59 48.304+19 05 24.79   ~65Ao 17.32GVNEOCPI52
     C46DUV1 1C2026 06 05.43706422 59 45.532+19 05 11.58   ~65Ao 17.70GVNEOCPI52
     C46DUV1 1C2026 06 05.46472022 56 55.720+18 51 48.02   ~65BZ 17.50GVNEOCPI52
     C46DUV1 1C2026 06 05.46516622 56 52.976+18 51 34.96   ~65BZ 17.67GVNEOCPI52
     C46DUV1 1C2026 06 05.46561522 56 50.226+18 51 21.85   ~65BZ 17.40GVNEOCPI52
     C46DUV1 1C2026 06 05.46606522 56 47.468+18 51 08.60   ~65BZ 17.34GVNEOCPI52
     C46DUV1 KB2026 06 06.95113420 59 13.183+06 43 32.34   ~6705 17.6 GWNEOCPL47
     C46DUV1 KB2026 06 06.95215320 59 09.670+06 43 07.75   ~6705 17.8 GWNEOCPL47
     C46DUV1 KB2026 06 06.95317120 59 06.134+06 42 42.80   ~6705 17.5 GWNEOCPL47
     C46DUV1 KB2026 06 06.95417820 59 02.686+06 42 17.17   ~6705 18.2 GWNEOCPL47
     C46DUV1 KB2026 06 06.95519720 58 59.114+06 41 52.62   ~6705 18.3 GWNEOCPL47
     C46DUV1 KB2026 06 07.00675821 10 44.470+07 31 59.92   ~671Kx17.2 GXNEOCP595
     C46DUV1 KB2026 06 07.00750721 10 42.317+07 31 45.16   ~671Kx17.4 GXNEOCP595
     C46DUV1 KB2026 06 07.00825521 10 40.154+07 31 30.50   ~671Kx17.1 GXNEOCP595
     C46DUV1 KB2026 06 07.01391021 10 23.878+07 29 38.83   ~671Kx17.3 GXNEOCP595
     C46DUV1 KB2026 06 07.01465621 10 21.734+07 29 24.54   ~671Kx17.4 GXNEOCP595
     C46DUV1 KB2026 06 07.01540521 10 19.598+07 29 09.67   ~671Kx17.4 GXNEOCP595
     C46DUV1 KB2026 06 07.02366121 09 55.872+07 26 27.60   ~671Kx17.2 GXNEOCP595
     C46DUV1 KB2026 06 07.02440721 09 53.726+07 26 12.91   ~671Kx17.5 GXNEOCP595
     C46DUV1 KB2026 06 07.02515521 09 51.578+07 25 58.26   ~671Kx17.4 GXNEOCP595
     C46DUV1 KB2026 06 07.03228121 09 31.145+07 23 38.58   ~671Kx17.1 GXNEOCP595
     C46DUV1 KB2026 06 07.03303221 09 28.992+07 23 24.07   ~671Kx17.1 GXNEOCP595
     C46DUV1 KB2026 06 07.03378121 09 26.849+07 23 09.42   ~671Kx17.2 GXNEOCP595

Station data:
(595) Farra d'Isonzo  (N45.915731 E13.525780)  Italy.  Observers S. Aschi, E.
   Pettarin, G. Panterotto. Measurers S. Aschi, E. Pettarin. 0.40-m f/5.15
   reflector + CCD.
(703) Catalina Sky Survey  (N32.417029 W110.732640)
   US/Arizona.  Observer E. J. Christensen. Measurers T. Beuden, V. F.
   Carvajal, D. Fay, J. B. Fazekas, D. C. Fuls, A. R. Gibbs, A. D. Grauer, H.
   Gröller, J. K. Hogan, R. A. Kowalski, S. M. Larson, G. J. Leonard, D.
   Rankin, R. L. Seaman, F. C. Shelly, K. W. Wierzchoś. 0.68 m Schmidt + 10K
   CCD.
(I52) Steward Observatory, Mt. Lemmon Station  (N32.442570 W110.788920)
   US/Arizona. Measurers T. Beuden, V. F. Carvajal, D. Fay, J. B. Fazekas, D.
   C. Fuls, A. R. Gibbs, A. D. Grauer, H. Gröller, J. K. Hogan, R. A.
   Kowalski, S. M. Larson, G. J. Leonard, D. Rankin, R. L. Seaman, F. C.
   Shelly, K. W. Wierzchoś. 1.0-m prime focus + CCD.
(L47) Osservatorio Astronomico, Piobbico  (N43.585893 E12.507110)  Italy.
   Observers A. Teseo, A. Annamelia. 0.20-m f/6.3 Schmidt-Cassegrain + CCD.

Orbital elements:  C46DUV1
   Perihelion 2026 Apr 27.560816 +/- 0.202 TT = 13:27:34.4 (JD 2461158.060816)
Epoch 2026 Jun  6.0 TT = JDT 2461197.5   Earth MOID: 0.0119   Ju: 0.2760
M   1.597849724 +/- 0.36            Ve: 0.0620   Ma: 0.0699   Sa: 0.9188
n   0.040514269 +/- 0.00875         Peri.  297.463944 +/- 0.022
a   8.395837859 +/- 0.668           Node   248.111960 +/- 0.008
e   0.91786637 +/- 0.0109           Incl.    4.805329 +/- 0.043
P  24.32742                H 22.32  G  0.15   U  9.6
q 0.689580613 +/- 0.00209    Q 16.10209510 +/- 1.34              AutoNEOCP
15 of 28 observations 2026 June 5-6 (37.1 hr); mean residual 0".25
Residuals in arcseconds: 
260605 703( 4.6+  1.5-)   260605 I52  .04-  .12+    260607 595(220'+ 4299+)   
260605 703  .05+  .09+    260606 L47  .22-  .02+    260607 595(220'+ 4302+)   
260605 703  .17-  .31+    260606 L47  .04+  .40+    260607 595(221'+ 4338+)   
260605 I52  .05+  .39-    260606 L47  .11-  .38+    260607 595(221'+ 4341+)   
260605 I52  .13+  .48-    260606 L47  .47+  .60-    260607 595(221'+ 4344+)   
260605 I52  .01-  .20-    260606 L47  .19-  .21-    260607 595(222'+ 4374+)   
260605 I52  .07-  .40-    260607 595(219'+ 4265+)   260607 595(222'+ 4378+)   
260605 I52  .07+  .19+    260607 595(219'+ 4268+)   260607 595(222'+ 4381+)   
260605 I52  .07-  .18+    260607 595(219'+ 4271+)   
260605 I52  .04-  .20+    260607 595(220'+ 4295+)   

Ephemerides (geocentric):
Date (UTC) HH   RA             Dec           delta  r     elong  mag " sig PA
---- --------  ------------   ------------  ------ ------ -----  --- --------
2026 06 07 06  20 43 04.847   +04 50 07.94  .03881 1.0341 118.9 17.5 3.60 102
2026 06 07 07  20 41 01.502   +04 35 01.40  .03917 1.0347 119.6 17.5 3.84 100
2026 06 07 08  20 39 00.496   +04 20 10.15  .03953 1.0352 120.2 17.5 4.09  97
2026 06 07 09  20 37 01.783   +04 05 34.03  .03990 1.0358 120.7 17.5 4.34  95
2026 06 07 10  20 35 05.314   +03 51 12.90  .04027 1.0363 121.3 17.5 4.61  93
2026 06 07 11  20 33 11.042   +03 37 06.57  .04065 1.0369 121.9 17.5 4.87  91
2026 06 07 12  20 31 18.920   +03 23 14.86  .04103 1.0374 122.4 17.5 5.15  90
2026 06 07 13  20 29 28.902   +03 09 37.59  .04141 1.0380 123.0 17.5 5.42  88
2026 06 07 14  20 27 40.944   +02 56 14.56  .04179 1.0385 123.5 17.5 5.70  87
2026 06 07 15  20 25 54.999   +02 43 05.56  .04218 1.0391 124.0 17.5 5.98  86
2026 06 07 16  20 24 11.025   +02 30 10.39  .04257 1.0396 124.6 17.5 6.26  85
2026 06 07 17  20 22 28.978   +02 17 28.83  .04297 1.0401 125.1 17.5 6.54  84
2026 06 07 18  20 20 48.815   +02 05 00.67  .04337 1.0407 125.6 17.5 6.82  83
2026 06 07 19  20 19 10.495   +01 52 45.70  .04377 1.0412 126.1 17.5 7.10  82
2026 06 07 20  20 17 33.976   +01 40 43.68  .04417 1.0418 126.5 17.5 7.38  82
2026 06 07 21  20 15 59.219   +01 28 54.41  .04458 1.0423 127.0 17.5 7.66  81
2026 06 07 22  20 14 26.185   +01 17 17.65  .04498 1.0429 127.5 17.6 7.94  80
2026 06 07 23  20 12 54.834   +01 05 53.19  .04539 1.0434 128.0 17.6 8.22  80
2026 06 08 00  20 11 25.129   +00 54 40.80  .04581 1.0440 128.4 17.6 8.49  79
2026 06 08 01  20 09 57.032   +00 43 40.26  .04622 1.0445 128.8 17.6 8.77  79
2026 06 08 02  20 08 30.509   +00 32 51.35  .04664 1.0451 129.3 17.6 9.04  78
2026 06 08 03  20 07 05.522   +00 22 13.85  .04706 1.0456 129.7 17.6 9.31  78
2026 06 08 04  20 05 42.039   +00 11 47.54  .04748 1.0462 130.1 17.6 9.58  77
2026 06 08 05  20 04 20.024   +00 01 32.21  .04791 1.0467 130.6 17.6 9.85  77
2026 06 08 06  20 02 59.445   -00 08 32.36  .04833 1.0473 131.0 17.6 10.1  77
2026 06 08 07  20 01 40.270   -00 18 26.38  .04876 1.0478 131.4 17.6 10.4  76
2026 06 08 08  20 00 22.467   -00 28 10.06  .04919 1.0484 131.8 17.6 10.6  76
2026 06 08 09  19 59 06.005   -00 37 43.60  .04963 1.0489 132.2 17.6 10.9  76
2026 06 08 10  19 57 50.854   -00 47 07.22  .05006 1.0495 132.5 17.7 11.2  76
2026 06 08 11  19 56 36.985   -00 56 21.10  .05050 1.0500 132.9 17.7 11.4  75
2026 06 08 12  19 55 24.369   -01 05 25.45  .05094 1.0505 133.3 17.7 11.7  75
2026 06 08 13  19 54 12.978   -01 14 20.46  .05138 1.0511 133.7 17.7 11.9  75
2026 06 08 14  19 53 02.786   -01 23 06.33  .05182 1.0516 134.0 17.7 12.2  75
2026 06 08 15  19 51 53.765   -01 31 43.24  .05226 1.0522 134.4 17.7 12.4  74
2026 06 08 16  19 50 45.889   -01 40 11.38  .05271 1.0527 134.7 17.7 12.6  74
2026 06 08 17  19 49 39.133   -01 48 30.92  .05315 1.0533 135.1 17.7 12.9  74
2026 06 08 18  19 48 33.473   -01 56 42.06  .05360 1.0538 135.4 17.7 13.1  74
2026 06 08 19  19 47 28.884   -02 04 44.95  .05405 1.0544 135.7 17.7 13.3  74
2026 06 08 20  19 46 25.343   -02 12 39.78  .05450 1.0549 136.1 17.8 13.6  73
2026 06 08 21  19 45 22.828   -02 20 26.70  .05495 1.0555 136.4 17.8 13.8  73
2026 06 08 22  19 44 21.314   -02 28 05.90  .05541 1.0560 136.7 17.8 14.0  73
2026 06 08 23  19 43 20.782   -02 35 37.52  .05586 1.0566 137.0 17.8 14.3  73
2026 06 09 00  19 42 21.210   -02 43 01.72  .05632 1.0571 137.4 17.8 14.5  73
2026 06 09 01  19 41 22.577   -02 50 18.67  .05678 1.0577 137.7 17.8 14.7  73
2026 06 09 02  19 40 24.862   -02 57 28.50  .05724 1.0582 138.0 17.8 14.9  73
2026 06 09 03  19 39 28.047   -03 04 31.38  .05770 1.0588 138.3 17.8 15.1  73
2026 06 09 04  19 38 32.112   -03 11 27.44  .05816 1.0593 138.6 17.8 15.3  72
2026 06 09 05  19 37 37.038   -03 18 16.82  .05862 1.0599 138.8 17.8 15.5  72